Regional Weather Roundup
Issued by NWS Little Rock, AR

Home | Current Version | Previous Version | Graphics & Text | Print | Product List | Glossary On
Versions: 1 2 3 4 5 6 7 8 9 10 11 12 13 14 15 16 17 18 19 20 21 22 23 24 25 26 27 28 29 30 31 32 33 34 35 36 37 38 39 40 41 42 43 44 45 46 47 48 49 50
000
ASUS44 KLZK 082105
RWRLZK

WEATHER ROUNDUP FOR ARKANSAS
NATIONAL WEATHER SERVICE LITTLE ROCK AR
300 PM CST MON FEB 08 2016

NOTE: "FAIR" INDICATES FEW OR NO CLOUDS BELOW 12,000 FEET WITH NO
SIGNIFICANT WEATHER AND/OR OBSTRUCTIONS TO VISIBILITY.

ARZ001-003-010-029-082200-
NORTHWEST ARKANSAS

CITY           SKY/WX    TMP DP  RH WIND       PRES   REMARKS
FAYETTEVILLE   CLOUDY    39  16  39 NW23G44   30.07R
FORT SMITH     PTSUNNY   49  12  22 NW25G33   30.10S
HARRISON       CLOUDY    34  22  61 NW18G28   30.01R WCI  23
BENTONVILLE    CLOUDY    37  18  44 N17G29    30.08S
ROGERS         LGT RAIN  36  18  48 NW23G30   30.06F
SILOAM SPGS    CLOUDY    39  14  35 NW24G35   30.08F
HIGHFILL       LGT RAIN  40  19  43 NW22G31   30.07R
SPRINGDALE     PTSUNNY   37  18  44 NW25G32   30.08R
$$

ARZ004-005-016-082200-
NORTH CENTRAL ARKANSAS

CITY           SKY/WX    TMP DP  RH WIND       PRES   REMARKS
BATESVILLE     CLOUDY    39  16  38 W13G26    29.99S
FLIPPIN        CLOUDY   N/A N/A N/A NW18G31   29.99S
MTN HOME       CLOUDY    35  16  45 NW12G25   29.99R WCI  27
$$

ARZ040-041-082200-
WEST CENTRAL ARKANSAS

CITY           SKY/WX    TMP DP  RH WIND       PRES   REMARKS
MENA           MOSUNNY   48  16  27 NW22      30.08S
MOUNT IDA      PTSUNNY   47  15  27 NW12G29   30.04S
$$

ARZ009-017-025-026-028-082200-
NORTHEAST ARKANSAS

CITY           SKY/WX    TMP DP  RH WIND       PRES   REMARKS
CORNING        FAIR      37  19  48 NW29G36   29.95S
JONESBORO      CLOUDY    39  22  50 NW20G26   29.96R
NEWPORT        LGT RAIN  42  20  41 NW28G35   29.99R
WALNUT RIDGE   CLOUDY    39  18  41 NW21      29.97R
BLYTHEVILLE    CLOUDY    41  23  48 NW18G26   29.94R
$$

ARZ022-023-033-042-044-082200-
CENTRAL ARKANSAS

CITY           SKY/WX    TMP DP  RH WIND       PRES   REMARKS
LITTLE ROCK    CLOUDY    46  16  30 NW21G30   30.04S
N LITTLE ROCK  CLOUDY    43  18  36 NW13G29   30.04S
JACKSONVILLE   CLOUDY    45  17  32 W14G29    30.01S
SEARCY         CLOUDY    44  21  40 NW16G25   30.02R
HOT SPRINGS    CLOUDY    47  16  29 NW16G29   30.05S
RUSSELLVILLE   CLOUDY    45  17  32 NW21G31   30.04F
CLINTON        PTSUNNY   41  19  42 NW12G22   30.02S
$$

ARZ036-082200-
EAST ARKANSAS

CITY           SKY/WX    TMP DP  RH WIND       PRES   REMARKS
WEST MEMPHIS   CLOUDY    43  22  43 NW15G25   29.94S
$$

ARZ050-053-066-070-073-082200-
SOUTHWEST ARKANSAS

CITY           SKY/WX    TMP DP  RH WIND       PRES   REMARKS
ARKADELPHIA    FAIR      51  20  29 NW17      30.08R
CAMDEN         MOSUNNY   54  10  17 W14G21    30.06S
TEXARKANA      SUNNY     53  13  20 NW18G35   30.10F
EL DORADO      MOSUNNY   51  15  23 NW18G35   30.06F
DE QUEEN       SUNNY     52  16  24 NW16G30   30.10S
$$

ARZ056-057-069-082200-
SOUTHEAST ARKANSAS

CITY           SKY/WX    TMP DP  RH WIND       PRES   REMARKS
PINE BLUFF     CLOUDY    46  17  31 NW20G33   30.04R
STUTTGART      CLOUDY    45  19  36 W26       30.02R
MONTICELLO     CLOUDY    49  16  26 NW18G28   30.02S

$$





USA.gov is the U.S. government's official web portal to all federal, state and local government web resources and services.